TimeCDT,TemperatureF,Dew PointF,Humidity,Sea Level PressureIn,VisibilityMPH,Wind Direction,Wind SpeedMPH,Gust SpeedMPH,PrecipitationIn,Events,Conditions,WindDirDegrees,DateUTC
12:15 AM,57.2,53.6,88,29.75,8.0,North,6.9,-,N/A,,Clear,350,2012-10-02 05:15:00
12:35 AM,57.2,53.6,88,29.74,9.0,North,5.8,-,N/A,,Clear,350,2012-10-02 05:35:00
12:55 AM,57.2,53.6,88,29.75,8.0,NNW,5.8,-,N/A,,Clear,330,2012-10-02 05:55:00
1:55 AM,55.4,53.6,94,29.75,8.0,NNW,4.6,-,N/A,,Clear,330,2012-10-02 06:55:00
2:15 AM,55.4,53.6,94,29.75,8.0,NNW,6.9,-,N/A,,Scattered Clouds,330,2012-10-02 07:15:00
2:35 AM,55.4,53.6,94,29.75,8.0,NNW,6.9,-,N/A,,Overcast,330,2012-10-02 07:35:00
2:55 AM,55.4,53.6,94,29.74,8.0,NNW,5.8,-,N/A,,Overcast,340,2012-10-02 07:55:00
3:15 AM,55.4,53.6,94,29.75,8.0,NNW,5.8,-,N/A,,Overcast,340,2012-10-02 08:15:00
3:35 AM,55.4,53.6,94,29.75,8.0,NNW,6.9,-,N/A,,Overcast,340,2012-10-02 08:35:00
3:55 AM,55.4,53.6,94,29.77,8.0,NNW,4.6,-,N/A,,Overcast,330,2012-10-02 08:55:00
4:15 AM,55.4,53.6,94,29.77,8.0,NNW,5.8,-,N/A,,Overcast,340,2012-10-02 09:15:00
4:35 AM,55.4,53.6,94,29.78,9.0,NW,4.6,-,N/A,,Overcast,320,2012-10-02 09:35:00
4:55 AM,55.4,51.8,88,29.79,7.0,NW,5.8,-,N/A,,Overcast,320,2012-10-02 09:55:00
5:15 AM,55.4,51.8,88,29.79,8.0,NNW,6.9,-,N/A,,Overcast,330,2012-10-02 10:15:00
5:35 AM,55.4,51.8,88,29.80,8.0,NNW,3.5,-,N/A,,Overcast,330,2012-10-02 10:35:00
5:55 AM,55.4,51.8,88,29.80,9.0,NNW,3.5,-,N/A,,Overcast,330,2012-10-02 10:55:00
6:15 AM,55.4,51.8,88,29.81,9.0,NW,4.6,-,N/A,,Scattered Clouds,310,2012-10-02 11:15:00
6:35 AM,53.6,50.0,88,29.82,8.0,NW,3.5,-,N/A,,Clear,320,2012-10-02 11:35:00
6:55 AM,53.6,50.0,88,29.83,5.0,WNW,3.5,-,N/A,,Clear,290,2012-10-02 11:55:00
7:15 AM,53.6,50.0,88,29.83,5.0,Calm,Calm,-,N/A,,Clear,0,2012-10-02 12:15:00
7:35 AM,53.6,50.0,88,29.85,5.0,NW,3.5,-,N/A,,Clear,320,2012-10-02 12:35:00
7:55 AM,53.6,51.8,94,29.86,5.0,Calm,Calm,-,N/A,,Clear,0,2012-10-02 12:55:00
8:15 AM,55.4,50.0,82,29.87,7.0,NW,4.6,-,N/A,,Clear,310,2012-10-02 13:15:00
8:35 AM,55.4,50.0,82,29.87,8.0,NW,6.9,-,N/A,,Clear,310,2012-10-02 13:35:00
8:55 AM,57.2,50.0,77,29.87,8.0,NW,6.9,-,N/A,,Clear,310,2012-10-02 13:55:00
9:15 AM,57.2,50.0,77,29.88,9.0,NNW,8.1,-,N/A,,Clear,340,2012-10-02 14:15:00
9:35 AM,59.0,50.0,72,29.88,9.0,NW,6.9,-,N/A,,Clear,310,2012-10-02 14:35:00
9:55 AM,59.0,50.0,72,29.89,8.0,NNW,5.8,-,N/A,,Clear,330,2012-10-02 14:55:00
10:15 AM,60.8,50.0,68,29.90,9.0,West,5.8,-,N/A,,Clear,280,2012-10-02 15:15:00
10:35 AM,62.6,50.0,63,29.90,9.0,NW,3.5,-,N/A,,Clear,320,2012-10-02 15:35:00
10:55 AM,62.6,50.0,63,29.90,10.0,NW,6.9,-,N/A,,Clear,320,2012-10-02 15:55:00
11:15 AM,64.4,50.0,59,29.89,8.0,NNW,3.5,-,N/A,,Clear,330,2012-10-02 16:15:00
11:35 AM,64.4,50.0,59,29.89,9.0,West,8.1,-,N/A,,Clear,280,2012-10-02 16:35:00
11:55 AM,66.2,50.0,56,29.89,9.0,WNW,6.9,-,N/A,,Clear,290,2012-10-02 16:55:00
12:15 PM,66.2,48.2,52,29.89,10.0,NW,9.2,-,N/A,,Clear,310,2012-10-02 17:15:00
12:35 PM,68.0,50.0,52,29.89,8.0,West,6.9,-,N/A,,Clear,260,2012-10-02 17:35:00
12:55 PM,68.0,48.2,49,29.89,9.0,NW,8.1,-,N/A,,Clear,310,2012-10-02 17:55:00
1:15 PM,68.0,48.2,49,29.89,9.0,West,8.1,-,N/A,,Clear,280,2012-10-02 18:15:00
1:35 PM,69.8,46.4,43,29.88,9.0,WNW,6.9,-,N/A,,Clear,300,2012-10-02 18:35:00
1:55 PM,69.8,46.4,43,29.87,9.0,NW,8.1,-,N/A,,Clear,310,2012-10-02 18:55:00
2:15 PM,69.8,44.6,40,29.87,10.0,NW,11.5,-,N/A,,Clear,310,2012-10-02 19:15:00
2:35 PM,71.6,44.6,38,29.87,9.0,WNW,8.1,-,N/A,,Clear,290,2012-10-02 19:35:00
2:55 PM,71.6,44.6,38,29.87,9.0,NW,12.7,16.1,N/A,,Clear,310,2012-10-02 19:55:00
3:35 PM,71.6,44.6,38,29.88,10.0,NNW,8.1,-,N/A,,Clear,330,2012-10-02 20:35:00
3:55 PM,71.6,46.4,41,29.88,9.0,WNW,6.9,-,N/A,,Clear,290,2012-10-02 20:55:00
4:15 PM,71.6,46.4,41,29.88,10.0,WNW,4.6,-,N/A,,Clear,290,2012-10-02 21:15:00
4:35 PM,71.6,46.4,41,29.89,10.0,WNW,6.9,-,N/A,,Clear,300,2012-10-02 21:35:00
4:55 PM,71.6,44.6,38,29.89,9.0,West,5.8,-,N/A,,Clear,280,2012-10-02 21:55:00
5:15 PM,69.8,44.6,40,29.89,9.0,WNW,5.8,-,N/A,,Clear,290,2012-10-02 22:15:00
5:35 PM,68.0,46.4,46,29.90,9.0,WNW,3.5,-,N/A,,Clear,290,2012-10-02 22:35:00
5:55 PM,68.0,46.4,46,29.90,9.0,WNW,3.5,-,N/A,,Clear,290,2012-10-02 22:55:00
6:15 PM,66.2,48.2,52,29.91,10.0,West,3.5,-,N/A,,Clear,270,2012-10-02 23:15:00
6:35 PM,62.6,53.6,72,29.92,9.0,Calm,Calm,-,N/A,,Clear,0,2012-10-02 23:35:00
6:55 PM,59.0,53.6,82,29.92,9.0,Calm,Calm,-,N/A,,Unknown,0,2012-10-02 23:55:00
7:15 PM,57.2,51.8,82,29.93,10.0,Calm,Calm,-,N/A,,Clear,0,2012-10-03 00:15:00
7:35 PM,55.4,51.8,88,29.94,10.0,Calm,Calm,-,N/A,,Clear,0,2012-10-03 00:35:00
7:55 PM,55.4,53.6,94,29.94,10.0,Calm,Calm,-,N/A,,Clear,0,2012-10-03 00:55:00
8:15 PM,53.6,51.8,94,29.95,10.0,Calm,Calm,-,N/A,,Clear,0,2012-10-03 01:15:00
8:35 PM,53.6,51.8,94,29.96,9.0,Calm,Calm,-,N/A,,Clear,0,2012-10-03 01:35:00
8:55 PM,53.6,50.0,88,29.97,10.0,Calm,Calm,-,N/A,,Clear,0,2012-10-03 01:55:00
9:15 PM,53.6,50.0,88,29.97,9.0,Calm,Calm,-,N/A,,Clear,0,2012-10-03 02:15:00
9:55 PM,51.8,50.0,94,29.98,9.0,Calm,Calm,-,N/A,,Clear,0,2012-10-03 02:55:00
10:15 PM,51.8,50.0,94,29.98,9.0,Calm,Calm,-,N/A,,Clear,0,2012-10-03 03:15:00
10:35 PM,51.8,50.0,94,29.99,9.0,Calm,Calm,-,N/A,,Clear,0,2012-10-03 03:35:00
10:55 PM,51.8,50.0,94,29.99,9.0,Calm,Calm,-,N/A,,Clear,0,2012-10-03 03:55:00
11:15 PM,51.8,50.0,94,29.99,9.0,Calm,Calm,-,N/A,,Clear,0,2012-10-03 04:15:00
11:35 PM,50.0,50.0,100,29.99,8.0,Calm,Calm,-,N/A,,Clear,0,2012-10-03 04:35:00
11:55 PM,50.0,50.0,100,29.99,8.0,Calm,Calm,-,N/A,,Clear,0,2012-10-03 04:55:00